THOR ABLESTAR DEB, 753

Orbit data source: Space-Track

THOR ABLESTAR DEB, 753 is space debris in LEO originally from a launch on Thu, 05 Dec 1963 UTC launched from the Air Force Western Test Range (AFWTR). Debris objects in space refer to the collection of defunct objects orbiting the Earth. Examples of debris include non-operational satellites, rocket bodies, and fragments generated from explosions, collisions, or faulty payload assembly.

Loading next visibility...
Identifier
753, 1963-049F
Orbit
LEO
Last TLE update
15 hours ago
Origin
Manufacturer
Unknown
Mission
Spacecraft
Bus & Motor
Unknown
Mass
Unknown
Launch date (UTC)
1963-12-05 (61 years ago)
Launch vehicle
Unknown
Launch site
Air Force Western Test Range (AFWTR)
Object type
Payload
Rocket body
Debris
Shape & HBR
Unknown
Radar Cross Section
Small (<0.1 m²)

Expand to show TLE details & history

TLE from 15 hours ago
0 THOR ABLESTAR DEB
1 00753U 63049F   25128.62883326  .00000335  00000-0  47393-3 0  9993
2 00753  89.9137  76.2900 0025106 303.7093 237.7985 13.54709659 25778
Epoch: 2025-05-08T15:05Z
Definitive object data (Epoch: 2025-05-08T15:05:31.193Z)
Latitude
-1.38819°
Longitude
163.21552°
Altitude
1,068.113 km
Speed
7.313 km/s
True Right ascension
17h 05m 10s
True Declination
-1° 22' 49"
Sunlit
Object was in full shadow at TLE epoch
Visualization TLE readout
Latitude
-29.64056°
Longitude
-16.84087°
Altitude
1,049.727 km
Speed
7.334 km/s
Apparent Right ascension
03h 49m 45s
Apparent Declination
-36° 12' 53"
Sunlit
Object is in daylight
Visualization observer readout
Local Sidereal Time
14:09:10
Azimuth
272.587° WNW
Elevation
-69.928°
Doppler factor
1
Orbital elements
Apogee altitude
1,070.678 km
Perigee altitude
1,033.37 km
Semi-major axis
7,430.161 km
Eccentricity
0.0025106
Inclination
89.9137°
RAAN
76.29°
Arg. of periapsis
303.7093°
True anomaly
237.55547°
Mean anomaly
237.7985°
Eccentric anomaly
237.67694°
Mean motion
3.3888 °/min
BSTAR
0.00047393
Orbital period
106.23 mins
Loading maneuver chart data...
Loading SW <> Apogee altitude chart data...
Loading historical data...
Loading historical data...
Loading historical data...
Loading historical data...
Loading historical data...
Loading historical data...
Loading historical data...

THOR ABLESTAR DEB Visibility forecast

Observer location: undefined°, undefined°

Span
Click to sort rows by Start time (UTC) header in descending order
Start Az.
Max El. time (UTC)
Max El. Az.
Max El.
End time (UTC)
End Az.
13 mins2025-05-09 08:30:24.258Z7.794° NNE2025-05-09 08:37:24.258Z114.079° SE41.995°2025-05-09 08:43:24.258Z172.131° S
7 mins2025-05-09 10:19:24.258Z319.166° NNW2025-05-09 10:22:24.258Z287.146° WNW18.738°2025-05-09 10:26:24.258Z247.395° WSW
10 mins2025-05-09 20:27:24.258Z157.001° SSE2025-05-09 20:31:24.258Z101.51° ESE41.008°2025-05-09 20:37:24.258Z6.611° NNE
7 mins2025-05-09 22:15:24.258Z247.714° W2025-05-09 22:18:24.258Z280.844° WNW19.3°2025-05-09 22:22:24.258Z322.118° NNW
|